Location: Berg
(48.4333°N, 13.9167°E)
Time: 22:47:23
(UTC+00:00)

Cosmos 2150 Rocket - Pass Details

Date: 18 September 2020
Orbit: 749 x 808 km, 74.0° (Epoch: 31 October)

Event Time Altitude Azimuth Distance (km) Brightness Sun altitude
Rises 18:46:01 0° 187° (S) 3,259 7.1 -16.3°
Reaches altitude 10° 18:48:25 10° 184° (S) 2,344 6.3 -16.7°
Maximum altitude 18:53:38 56° 107° (ESE) 942 4.1 -17.5°
Drops below altitude 10° 18:58:57 10° 30° (NNE) 2,392 6.5 -18.3°
Sets 19:01:25 0° 26° (NNE) 3,332 7.3 -18.7°
